Torna al catalogo

STARLINK-30144

AttivoComunicazioniVLEO
NORAD 56835·PAYLOAD·🇺🇸 United States

Lanciato Jun 4, 2023 da Cape Canaveral Space Force Station

Loading…

Prossimi Passaggi (prossime 24 ore)

TLE

AggiornatoSource: CelesTrak SupGP

Epoca: Sep 14, 2026, 14:57 UTC

1 56835C 23079N   26257.62340278  .00134740  00000+0  19792-2 0  2577
2 56835  42.9858  97.8191 0024466 262.1710 274.6773 15.54168469    17

Traccia STARLINK-30144 in tempo reale con AllMySat

Download on the App Store